Location: ??
(35.5052°N, 139.7262°E)
Time: 08:24:20
(UTC+00:00)

PAYLOAD A - Visible Passes

Search period start: 26 October 2021 00:00
Search period end: 05 November 2021 00:00
Orbit: 691 x 832 km, 98.4° (Epoch: 25 October)

Date Brightness Start Highest point End Pass type
(mag) Time Alt. Az. Time Alt. Az. Time Alt. Az.
26 Oct 5.8 18:54:49 10° N 18:56:27 19° NNW 18:56:27 19° NNW visible
27 Oct 6.1 18:16:48 10° NNE 18:18:08 19° NNE 18:18:08 19° NNE visible
28 Oct 6.8 17:39:25 10° NNE 17:39:49 12° NNE 17:39:49 12° NNE visible
28 Oct 6.0 19:18:49 10° NNW 19:19:57 15° NNW 19:19:57 15° NNW visible
29 Oct 6.0 18:40:22 10° N 18:41:38 18° N 18:41:38 18° N visible
30 Oct 6.5 18:02:35 10° NNE 18:03:19 14° NNE 18:03:19 14° NNE visible
30 Oct 6.2 19:43:22 10° NNW 19:43:26 10° NNW 19:43:26 10° NNW visible
31 Oct 6.1 19:04:11 10° N 19:05:07 15° NNW 19:05:07 15° NNW visible
01 Nov 6.3 18:26:01 10° N 18:26:48 15° N 18:26:48 15° N visible
02 Nov 6.9 17:48:28 10° NNE 17:48:29 10° NNE 17:48:29 10° NNE visible
02 Nov 6.2 19:28:21 10° NNW 19:28:36 11° NNW 19:28:36 11° NNW visible
03 Nov 6.3 18:49:41 10° N 18:50:17 13° N 18:50:17 13° N visible
04 Nov 6.7 18:11:45 10° NNE 18:11:58 11° NNE 18:11:58 11° NNE visible
